Regional Weather Roundup
Issued by NWS Goodland, KS

Home | Current Version | Previous Version | Text Only | Print | Product List | Glossary Off
Versions: 1 2 3 4 5 6 7 8 9 10 11 12 13 14 15 16 17 18 19 20 21 22 23 24 25 26 27 28 29 30 31 32 33 34 35 36 37 38 39 40 41 42 43 44 45 46 47 48 49 50

000
ASUS43 KGLD 042059
RWRGLD

GOODLAND FORECAST AREA HOURLY WEATHER ROUNDUP
NATIONAL WEATHER SERVICE GOODLAND KS
200 PM MST WED MAR 04 2015

...OFFICIAL OBSERVATIONS...

CITY           SKY/WX    TMP DP  RH WIND       PRES   REMARKS
GOODLAND KS    SUNNY     28   7  41 NW13      30.18F WCI  17
HILL CITY KS   SUNNY     33   4  29 N21       30.26F
IMPERIAL NEB     N/A     29   7  39 N18       30.19F WCI  16
MCCOOK NEB     SUNNY     31   6  35 NW12G23   30.23F
AKRON CO       MOSUNNY   22   3  44 N5        30.13F
BURLINGTON CO  SUNNY     25   6  44 N12       30.16F WCI  14
LIMON CO       SUNNY     17   2  51 CALM      30.12F
$$

...UNOFFICIAL OBSERVATIONS...

CITY           SKY/WX    TMP DP  RH WIND       PRES   REMARKS
COLBY KS       SUNNY     30  10  43 NW16      30.21F WCI  19
GOVE KS          N/A     30  32 100 MISG        N/A
LENORA KS        N/A     28  32 100 S13G20      N/A  WCI  17
NORTON KS      SUNNY     30   1  29 NW16      30.24S WCI  19
SHARON SPRINGS   N/A     27  12  52 NE12G18     N/A  WCI  17
KIT CARSON CO    N/A     22   7  52 MISG        N/A
YUMA CO          N/A     25   2  37 N6          N/A
$$



USA.gov is the U.S. government's official web portal to all federal, state and local government web resources and services.